Year,Month,Day,Hour,Minute,Value (Times are PST for temperature in C)
2008,06,28,00,00,15.80
2008,06,28,00,01,15.70
2008,06,28,00,02,15.70
2008,06,28,00,03,15.70
2008,06,28,00,04,15.70
2008,06,28,00,05,15.70
2008,06,28,00,06,15.70
2008,06,28,00,07,15.70
2008,06,28,00,08,15.70
2008,06,28,00,09,15.70
2008,06,28,00,10,15.70
2008,06,28,00,11,15.70
2008,06,28,00,12,15.70
2008,06,28,00,13,15.70
2008,06,28,00,14,15.70
2008,06,28,00,15,15.60
2008,06,28,00,16,15.60
2008,06,28,00,17,15.60
2008,06,28,00,18,15.60
2008,06,28,00,19,15.60
2008,06,28,00,20,15.60
2008,06,28,00,21,15.60
2008,06,28,00,22,15.50
2008,06,28,00,23,15.50
2008,06,28,00,24,15.50
2008,06,28,00,25,15.50
2008,06,28,00,26,15.40
2008,06,28,00,27,15.40
2008,06,28,00,28,15.40
2008,06,28,00,29,15.40
2008,06,28,00,30,15.40
2008,06,28,00,31,15.40
2008,06,28,00,32,15.40
2008,06,28,00,33,15.40
2008,06,28,00,34,15.40
2008,06,28,00,35,15.30
2008,06,28,00,36,15.30
2008,06,28,00,37,15.30
2008,06,28,00,38,15.30
2008,06,28,00,39,15.30
2008,06,28,00,40,15.30
2008,06,28,00,41,15.30
2008,06,28,00,42,15.30
2008,06,28,00,43,15.30
2008,06,28,00,44,15.30
2008,06,28,00,45,15.20
2008,06,28,00,46,15.20
2008,06,28,00,47,15.20
2008,06,28,00,48,15.20
2008,06,28,00,49,15.20
2008,06,28,00,50,15.20
2008,06,28,00,51,15.10
2008,06,28,00,52,15.10
2008,06,28,00,53,15.10
2008,06,28,00,54,15.10
2008,06,28,00,55,15.00
2008,06,28,00,56,15.00
2008,06,28,00,57,15.00
2008,06,28,00,58,15.00
2008,06,28,00,59,15.00
2008,06,28,01,00,15.00
2008,06,28,01,01,15.00
2008,06,28,01,02,15.00
2008,06,28,01,03,15.00
2008,06,28,01,04,15.00
2008,06,28,01,05,15.00
2008,06,28,01,06,15.00
2008,06,28,01,07,15.00
2008,06,28,01,08,15.00
2008,06,28,01,09,15.00
2008,06,28,01,10,15.00
2008,06,28,01,11,15.00
2008,06,28,01,12,15.00
2008,06,28,01,13,15.00
2008,06,28,01,14,15.00
2008,06,28,01,15,15.00
2008,06,28,01,16,15.00
2008,06,28,01,17,15.00
2008,06,28,01,18,15.00
2008,06,28,01,19,15.00
2008,06,28,01,20,15.00
2008,06,28,01,21,15.00
2008,06,28,01,22,15.00
2008,06,28,01,23,15.00
2008,06,28,01,24,15.00
2008,06,28,01,25,14.90
2008,06,28,01,26,14.90
2008,06,28,01,27,14.90
2008,06,28,01,28,14.80
2008,06,28,01,29,14.80
2008,06,28,01,30,14.80
2008,06,28,01,31,14.80
2008,06,28,01,32,14.80
2008,06,28,01,33,14.80
2008,06,28,01,34,14.80
2008,06,28,01,35,14.70
2008,06,28,01,36,14.70
2008,06,28,01,37,14.70
2008,06,28,01,38,14.70
2008,06,28,01,39,14.70
2008,06,28,01,40,14.70
2008,06,28,01,41,14.70
2008,06,28,01,42,14.60
2008,06,28,01,43,14.60
2008,06,28,01,44,14.60
2008,06,28,01,45,14.60
2008,06,28,01,46,14.60
2008,06,28,01,47,14.60
2008,06,28,01,48,14.60
2008,06,28,01,49,14.60
2008,06,28,01,50,14.50
2008,06,28,01,51,14.50
2008,06,28,01,52,14.50
2008,06,28,01,53,14.50
2008,06,28,01,54,14.50
2008,06,28,01,55,14.40
2008,06,28,01,56,14.40
2008,06,28,01,57,14.40
2008,06,28,01,58,14.40
2008,06,28,01,59,14.40
2008,06,28,02,00,14.40
2008,06,28,02,01,14.40
2008,06,28,02,02,14.40
2008,06,28,02,03,14.30
2008,06,28,02,04,14.30
2008,06,28,02,05,14.30
2008,06,28,02,06,14.30
2008,06,28,02,07,14.30
2008,06,28,02,08,14.30
2008,06,28,02,09,14.30
2008,06,28,02,10,14.30
2008,06,28,02,11,14.30
2008,06,28,02,12,14.30
2008,06,28,02,13,14.30
2008,06,28,02,14,14.30
2008,06,28,02,15,14.30
2008,06,28,02,16,14.20
2008,06,28,02,17,14.20
2008,06,28,02,18,14.20
2008,06,28,02,19,14.20
2008,06,28,02,20,14.20
2008,06,28,02,21,14.20
2008,06,28,02,22,14.20
2008,06,28,02,23,14.20
2008,06,28,02,24,14.20
2008,06,28,02,25,14.20
2008,06,28,02,26,14.20
2008,06,28,02,27,14.20
2008,06,28,02,28,14.20
2008,06,28,02,29,14.20
2008,06,28,02,30,14.20
2008,06,28,02,31,14.20
2008,06,28,02,32,14.20
2008,06,28,02,33,14.20
2008,06,28,02,34,14.20
2008,06,28,02,35,14.20
2008,06,28,02,36,14.20
2008,06,28,02,37,14.10
2008,06,28,02,38,14.10
2008,06,28,02,39,14.10
2008,06,28,02,40,14.10
2008,06,28,02,41,14.10
2008,06,28,02,42,14.10
2008,06,28,02,43,14.10
2008,06,28,02,44,14.00
2008,06,28,02,45,14.00
2008,06,28,02,46,14.00
2008,06,28,02,47,14.00
2008,06,28,02,48,13.90
2008,06,28,02,49,13.90
2008,06,28,02,50,13.90
2008,06,28,02,51,13.90
2008,06,28,02,52,13.90
2008,06,28,02,53,13.90
2008,06,28,02,54,13.90
2008,06,28,02,55,13.80
2008,06,28,02,56,13.80
2008,06,28,02,57,13.80
2008,06,28,02,58,13.80
2008,06,28,02,59,13.80
2008,06,28,03,00,13.80
2008,06,28,03,01,13.80
2008,06,28,03,02,13.80
2008,06,28,03,03,13.80
2008,06,28,03,04,13.70
2008,06,28,03,05,13.70
2008,06,28,03,06,13.70
2008,06,28,03,07,13.70
2008,06,28,03,08,13.70
2008,06,28,03,09,13.70
2008,06,28,03,10,13.70
2008,06,28,03,11,13.70
2008,06,28,03,12,13.60
2008,06,28,03,13,13.60
2008,06,28,03,14,13.60
2008,06,28,03,15,13.60
2008,06,28,03,16,13.60
2008,06,28,03,17,13.60
2008,06,28,03,18,13.60
2008,06,28,03,19,13.60
2008,06,28,03,20,13.60
2008,06,28,03,21,13.60
2008,06,28,03,22,13.50
2008,06,28,03,23,13.50
2008,06,28,03,24,13.50
2008,06,28,03,25,13.50
2008,06,28,03,26,13.50
2008,06,28,03,27,13.50
2008,06,28,03,28,13.50
2008,06,28,03,29,13.50
2008,06,28,03,30,13.50
2008,06,28,03,31,13.50
2008,06,28,03,32,13.50
2008,06,28,03,33,13.50
2008,06,28,03,34,13.50
2008,06,28,03,35,13.60
2008,06,28,03,36,13.60
2008,06,28,03,37,13.60
2008,06,28,03,38,13.60
2008,06,28,03,39,13.60
2008,06,28,03,40,13.60
2008,06,28,03,41,13.60
2008,06,28,03,42,13.60
2008,06,28,03,43,13.60
2008,06,28,03,44,13.60
2008,06,28,03,45,13.60
2008,06,28,03,46,13.60
2008,06,28,03,47,13.60
2008,06,28,03,48,13.60
2008,06,28,03,49,13.60
2008,06,28,03,50,13.60
2008,06,28,03,51,13.60
2008,06,28,03,52,13.60
2008,06,28,03,53,13.60
2008,06,28,03,54,13.60
2008,06,28,03,55,13.60
2008,06,28,03,56,13.60
2008,06,28,03,57,13.60
2008,06,28,03,58,13.50
2008,06,28,03,59,13.50
2008,06,28,04,00,13.50
2008,06,28,04,01,13.50
2008,06,28,04,02,13.50
2008,06,28,04,03,13.40
2008,06,28,04,04,13.40
2008,06,28,04,05,13.40
2008,06,28,04,06,13.40
2008,06,28,04,07,13.40
2008,06,28,04,08,13.40
2008,06,28,04,09,13.40
2008,06,28,04,10,13.40
2008,06,28,04,11,13.40
2008,06,28,04,12,13.40
2008,06,28,04,13,13.30
2008,06,28,04,14,13.30
2008,06,28,04,15,13.30
2008,06,28,04,16,13.30
2008,06,28,04,17,13.30
2008,06,28,04,18,13.30
2008,06,28,04,19,13.30
2008,06,28,04,20,13.30
2008,06,28,04,21,13.30
2008,06,28,04,22,13.30
2008,06,28,04,23,13.30
2008,06,28,04,24,13.30
2008,06,28,04,25,13.30
2008,06,28,04,26,13.30
2008,06,28,04,27,13.30
2008,06,28,04,28,13.30
2008,06,28,04,29,13.30
2008,06,28,04,30,13.30
2008,06,28,04,31,13.30
2008,06,28,04,32,13.20
2008,06,28,04,33,13.20
2008,06,28,04,34,13.20
2008,06,28,04,35,13.20
2008,06,28,04,36,13.20
2008,06,28,04,37,13.20
2008,06,28,04,38,13.20
2008,06,28,04,39,13.20
2008,06,28,04,40,13.20
2008,06,28,04,41,13.20
2008,06,28,04,42,13.20
2008,06,28,04,43,13.20
2008,06,28,04,44,13.20
2008,06,28,04,45,13.20
2008,06,28,04,46,13.20
2008,06,28,04,47,13.20
2008,06,28,04,48,13.10
2008,06,28,04,49,13.10
2008,06,28,04,50,13.10
2008,06,28,04,51,13.10
2008,06,28,04,52,13.10
2008,06,28,04,53,13.10
2008,06,28,04,54,13.10
2008,06,28,04,55,13.10
2008,06,28,04,56,13.10
2008,06,28,04,57,13.10
2008,06,28,04,58,13.10
2008,06,28,04,59,13.10
2008,06,28,05,00,13.10
2008,06,28,05,01,13.10
2008,06,28,05,02,13.10
2008,06,28,05,03,13.00
2008,06,28,05,04,13.00
2008,06,28,05,05,13.00
2008,06,28,05,06,13.00
2008,06,28,05,07,13.00
2008,06,28,05,08,13.00
2008,06,28,05,09,13.00
2008,06,28,05,10,12.90
2008,06,28,05,11,12.90
2008,06,28,05,12,12.90
2008,06,28,05,13,12.90
2008,06,28,05,14,12.90
2008,06,28,05,15,12.90
2008,06,28,05,16,12.90
2008,06,28,05,17,12.90
2008,06,28,05,18,12.90
2008,06,28,05,19,12.90
2008,06,28,05,20,12.90
2008,06,28,05,21,12.80
2008,06,28,05,22,12.80
2008,06,28,05,23,12.80
2008,06,28,05,24,12.80
2008,06,28,05,25,12.80
2008,06,28,05,26,12.80
2008,06,28,05,27,12.80
2008,06,28,05,28,12.80
2008,06,28,05,29,12.80
2008,06,28,05,30,12.80
2008,06,28,05,31,12.80
2008,06,28,05,32,12.80
2008,06,28,05,33,12.80
2008,06,28,05,34,12.80
2008,06,28,05,35,12.80
2008,06,28,05,36,12.80
2008,06,28,05,37,12.80
2008,06,28,05,38,12.80
2008,06,28,05,39,12.80
2008,06,28,05,40,12.80
2008,06,28,05,41,12.80
2008,06,28,05,42,12.80
2008,06,28,05,43,12.80
2008,06,28,05,44,12.80
2008,06,28,05,45,12.80
2008,06,28,05,46,12.80
2008,06,28,05,47,12.80
2008,06,28,05,48,12.80
2008,06,28,05,49,12.80
2008,06,28,05,50,12.80
2008,06,28,05,51,12.80
2008,06,28,05,52,12.80
2008,06,28,05,53,12.90
2008,06,28,05,54,12.90
2008,06,28,05,55,12.90
2008,06,28,05,56,12.90
2008,06,28,05,57,13.00
2008,06,28,05,58,13.00
2008,06,28,05,59,13.10
2008,06,28,06,00,13.10
2008,06,28,06,01,13.10
2008,06,28,06,02,13.10
2008,06,28,06,03,13.20
2008,06,28,06,04,13.20
2008,06,28,06,05,13.20
2008,06,28,06,06,13.20
2008,06,28,06,07,13.30
2008,06,28,06,08,13.30
2008,06,28,06,09,13.30
2008,06,28,06,10,13.30
2008,06,28,06,11,13.40
2008,06,28,06,12,13.40
2008,06,28,06,13,13.40
2008,06,28,06,14,13.50
2008,06,28,06,15,13.60
2008,06,28,06,16,13.60
2008,06,28,06,17,13.70
2008,06,28,06,18,13.70
2008,06,28,06,19,13.70
2008,06,28,06,20,13.80
2008,06,28,06,21,13.80
2008,06,28,06,22,13.80
2008,06,28,06,23,13.80
2008,06,28,06,24,13.80
2008,06,28,06,25,13.80
2008,06,28,06,26,13.80
2008,06,28,06,27,13.80
2008,06,28,06,28,13.70
2008,06,28,06,29,13.70
2008,06,28,06,30,13.70
2008,06,28,06,31,13.70
2008,06,28,06,32,13.70
2008,06,28,06,33,13.70
2008,06,28,06,34,13.80
2008,06,28,06,35,13.80
2008,06,28,06,36,13.80
2008,06,28,06,37,13.80
2008,06,28,06,38,13.80
2008,06,28,06,39,13.80
2008,06,28,06,40,13.80
2008,06,28,06,41,13.90
2008,06,28,06,42,13.90
2008,06,28,06,43,13.90
2008,06,28,06,44,13.90
2008,06,28,06,45,14.00
2008,06,28,06,46,14.10
2008,06,28,06,47,14.10
2008,06,28,06,48,14.10
2008,06,28,06,49,14.10
2008,06,28,06,50,14.20
2008,06,28,06,51,14.20
2008,06,28,06,52,14.20
2008,06,28,06,53,14.20
2008,06,28,06,54,14.30
2008,06,28,06,55,14.30
2008,06,28,06,56,14.30
2008,06,28,06,57,14.30
2008,06,28,06,58,14.40
2008,06,28,06,59,14.40
2008,06,28,07,00,14.40
2008,06,28,07,01,14.50
2008,06,28,07,02,14.50
2008,06,28,07,03,14.50
2008,06,28,07,04,14.60
2008,06,28,07,05,14.60
2008,06,28,07,06,14.60
2008,06,28,07,07,14.70
2008,06,28,07,08,14.70
2008,06,28,07,09,14.80
2008,06,28,07,10,14.90
2008,06,28,07,11,15.00
2008,06,28,07,12,15.00
2008,06,28,07,13,15.00
2008,06,28,07,14,15.00
2008,06,28,07,15,15.00
2008,06,28,07,16,15.00
2008,06,28,07,17,15.00
2008,06,28,07,18,15.20
2008,06,28,07,19,15.30
2008,06,28,07,20,15.40
2008,06,28,07,21,15.50
2008,06,28,07,22,15.60
2008,06,28,07,23,15.80
2008,06,28,07,24,15.90
2008,06,28,07,25,15.90
2008,06,28,07,26,16.00
2008,06,28,07,27,16.10
2008,06,28,07,28,16.10
2008,06,28,07,29,16.20
2008,06,28,07,30,16.20
2008,06,28,07,31,16.30
2008,06,28,07,32,16.30
2008,06,28,07,33,16.40
2008,06,28,07,34,16.50
2008,06,28,07,35,16.50
2008,06,28,07,36,16.60
2008,06,28,07,37,16.60
2008,06,28,07,38,16.70
2008,06,28,07,39,16.70
2008,06,28,07,40,16.70
2008,06,28,07,41,16.90
2008,06,28,07,42,17.00
2008,06,28,07,43,17.10
2008,06,28,07,44,17.20
2008,06,28,07,45,17.40
2008,06,28,07,46,17.60
2008,06,28,07,47,17.80
2008,06,28,07,48,18.00
2008,06,28,07,49,18.20
2008,06,28,07,50,18.30
2008,06,28,07,51,18.40
2008,06,28,07,52,18.60
2008,06,28,07,53,18.80
2008,06,28,07,54,18.80
2008,06,28,07,55,19.00
2008,06,28,07,56,19.10
2008,06,28,07,57,19.20
2008,06,28,07,58,19.30
2008,06,28,07,59,19.40
2008,06,28,08,00,19.50
2008,06,28,08,01,19.60
2008,06,28,08,02,19.70
2008,06,28,08,03,19.80
2008,06,28,08,04,19.90
2008,06,28,08,05,20.00
2008,06,28,08,06,20.10
2008,06,28,08,07,20.30
2008,06,28,08,08,20.40
2008,06,28,08,09,20.50
2008,06,28,08,10,20.60
2008,06,28,08,11,20.70
2008,06,28,08,12,20.80
2008,06,28,08,13,20.90
2008,06,28,08,14,21.00
2008,06,28,08,15,21.10
2008,06,28,08,16,21.20
2008,06,28,08,17,21.30
2008,06,28,08,18,21.30
2008,06,28,08,19,21.40
2008,06,28,08,20,21.40
2008,06,28,08,21,21.50
2008,06,28,08,22,21.60
2008,06,28,08,23,21.60
2008,06,28,08,24,21.70
2008,06,28,08,25,21.70
2008,06,28,08,26,21.80
2008,06,28,08,27,21.80
2008,06,28,08,28,21.80
2008,06,28,08,29,21.80
2008,06,28,08,30,21.90
2008,06,28,08,31,21.90
2008,06,28,08,32,22.00
2008,06,28,08,33,22.00
2008,06,28,08,34,22.10
2008,06,28,08,35,22.10
2008,06,28,08,36,22.10
2008,06,28,08,37,22.20
2008,06,28,08,38,22.20
2008,06,28,08,39,22.20
2008,06,28,08,40,22.30
2008,06,28,08,41,22.40
2008,06,28,08,42,22.40
2008,06,28,08,43,22.50
2008,06,28,08,44,22.60
2008,06,28,08,45,22.70
2008,06,28,08,46,22.70
2008,06,28,08,47,22.80
2008,06,28,08,48,22.90
2008,06,28,08,49,23.00
2008,06,28,08,50,23.00
2008,06,28,08,51,23.10
2008,06,28,08,52,23.10
2008,06,28,08,53,23.10
2008,06,28,08,54,23.10
2008,06,28,08,55,23.20
2008,06,28,08,56,23.20
2008,06,28,08,57,23.30
2008,06,28,08,58,23.40
2008,06,28,08,59,23.40
2008,06,28,09,00,23.50
2008,06,28,09,01,23.60
2008,06,28,09,02,23.60
2008,06,28,09,03,23.70
2008,06,28,09,04,23.70
2008,06,28,09,05,23.70
2008,06,28,09,06,23.70
2008,06,28,09,07,23.70
2008,06,28,09,08,23.80
2008,06,28,09,09,23.80
2008,06,28,09,10,23.70
2008,06,28,09,11,23.70
2008,06,28,09,12,23.60
2008,06,28,09,13,23.60
2008,06,28,09,14,23.60
2008,06,28,09,15,23.60
2008,06,28,09,16,23.60
2008,06,28,09,17,23.60
2008,06,28,09,18,23.60
2008,06,28,09,19,23.60
2008,06,28,09,20,23.60
2008,06,28,09,21,23.70
2008,06,28,09,22,23.70
2008,06,28,09,23,23.70
2008,06,28,09,24,23.80
2008,06,28,09,25,23.80
2008,06,28,09,26,23.90
2008,06,28,09,27,23.90
2008,06,28,09,28,23.90
2008,06,28,09,29,24.00
2008,06,28,09,30,24.00
2008,06,28,09,31,24.00
2008,06,28,09,32,24.10
2008,06,28,09,33,24.10
2008,06,28,09,34,24.00
2008,06,28,09,35,24.00
2008,06,28,09,36,23.90
2008,06,28,09,37,23.90
2008,06,28,09,38,23.90
2008,06,28,09,39,23.90
2008,06,28,09,40,23.90
2008,06,28,09,41,24.00
2008,06,28,09,42,24.00
2008,06,28,09,43,24.00
2008,06,28,09,44,24.00
2008,06,28,09,45,24.00
2008,06,28,09,46,23.90
2008,06,28,09,47,23.90
2008,06,28,09,48,23.90
2008,06,28,09,49,23.90
2008,06,28,09,50,24.00
2008,06,28,09,51,24.00
2008,06,28,09,52,24.10
2008,06,28,09,53,24.10
2008,06,28,09,54,24.20
2008,06,28,09,55,24.20
2008,06,28,09,56,24.20
2008,06,28,09,57,24.30
2008,06,28,09,58,24.30
2008,06,28,09,59,24.40
2008,06,28,10,00,24.50
2008,06,28,10,01,24.60
2008,06,28,10,02,24.70
2008,06,28,10,03,24.80
2008,06,28,10,04,24.90
2008,06,28,10,05,24.90
2008,06,28,10,06,25.00
2008,06,28,10,07,24.90
2008,06,28,10,08,24.90
2008,06,28,10,09,24.80
2008,06,28,10,10,24.80
2008,06,28,10,11,24.80
2008,06,28,10,12,24.80
2008,06,28,10,13,24.90
2008,06,28,10,14,24.90
2008,06,28,10,15,24.90
2008,06,28,10,16,24.80
2008,06,28,10,17,24.80
2008,06,28,10,18,24.70
2008,06,28,10,19,24.80
2008,06,28,10,20,24.80
2008,06,28,10,21,24.90
2008,06,28,10,22,24.90
2008,06,28,10,23,24.80
2008,06,28,10,24,24.80
2008,06,28,10,25,24.80
2008,06,28,10,26,24.90
2008,06,28,10,27,24.90
2008,06,28,10,28,24.90
2008,06,28,10,29,24.90
2008,06,28,10,30,24.90
2008,06,28,10,31,24.90
2008,06,28,10,32,24.90
2008,06,28,10,33,25.00
2008,06,28,10,34,25.00
2008,06,28,10,35,25.00
2008,06,28,10,36,24.90
2008,06,28,10,37,24.90
2008,06,28,10,38,24.80
2008,06,28,10,39,24.70
2008,06,28,10,40,24.60
2008,06,28,10,41,24.50
2008,06,28,10,42,24.60
2008,06,28,10,43,24.60
2008,06,28,10,44,24.70
2008,06,28,10,45,24.80
2008,06,28,10,46,24.90
2008,06,28,10,47,25.00
2008,06,28,10,48,25.00
2008,06,28,10,49,25.10
2008,06,28,10,50,25.20
2008,06,28,10,51,25.20
2008,06,28,10,52,25.30
2008,06,28,10,53,25.30
2008,06,28,10,54,25.30
2008,06,28,10,55,25.30
2008,06,28,10,56,25.30
2008,06,28,10,57,25.30
2008,06,28,10,58,25.40
2008,06,28,10,59,25.50
2008,06,28,11,00,25.60
2008,06,28,11,01,25.60
2008,06,28,11,02,25.60
2008,06,28,11,03,25.60
2008,06,28,11,04,25.70
2008,06,28,11,05,25.70
2008,06,28,11,06,25.70
2008,06,28,11,07,25.70
2008,06,28,11,08,25.70
2008,06,28,11,09,25.70
2008,06,28,11,10,25.60
2008,06,28,11,11,25.60
2008,06,28,11,12,25.60
2008,06,28,11,13,25.70
2008,06,28,11,14,25.80
2008,06,28,11,15,25.90
2008,06,28,11,16,25.90
2008,06,28,11,17,26.10
2008,06,28,11,18,26.20
2008,06,28,11,19,26.40
2008,06,28,11,20,26.60
2008,06,28,11,21,26.80
2008,06,28,11,22,26.90
2008,06,28,11,23,27.00
2008,06,28,11,24,26.90
2008,06,28,11,25,26.90
2008,06,28,11,26,26.90
2008,06,28,11,27,26.90
2008,06,28,11,28,27.00
2008,06,28,11,29,27.10
2008,06,28,11,30,27.10
2008,06,28,11,31,27.20
2008,06,28,11,32,27.20
2008,06,28,11,33,27.30
2008,06,28,11,34,27.40
2008,06,28,11,35,27.40
2008,06,28,11,36,27.50
2008,06,28,11,37,27.50
2008,06,28,11,38,27.40
2008,06,28,11,39,27.40
2008,06,28,11,40,27.00
2008,06,28,11,41,26.90
2008,06,28,11,42,26.80
2008,06,28,11,43,26.80
2008,06,28,11,44,26.70
2008,06,28,11,45,26.70
2008,06,28,11,46,26.70
2008,06,28,11,47,26.70
2008,06,28,11,48,26.80
2008,06,28,11,49,26.90
2008,06,28,11,50,26.90
2008,06,28,11,51,26.90
2008,06,28,11,52,26.90
2008,06,28,11,53,26.90
2008,06,28,11,54,26.90
2008,06,28,11,55,26.90
2008,06,28,11,56,26.80
2008,06,28,11,57,26.80
2008,06,28,11,58,26.80
2008,06,28,11,59,26.80
2008,06,28,12,00,26.80
2008,06,28,12,01,26.70
2008,06,28,12,02,26.70
2008,06,28,12,03,26.80
2008,06,28,12,04,26.90
2008,06,28,12,05,27.00
2008,06,28,12,06,27.10
2008,06,28,12,07,27.10
2008,06,28,12,08,27.10
2008,06,28,12,09,27.10
2008,06,28,12,10,27.10
2008,06,28,12,11,27.00
2008,06,28,12,12,26.90
2008,06,28,12,13,26.90
2008,06,28,12,14,26.80
2008,06,28,12,15,26.80
2008,06,28,12,16,26.90
2008,06,28,12,17,26.90
2008,06,28,12,18,27.00
2008,06,28,12,19,27.10
2008,06,28,12,20,27.20
2008,06,28,12,21,27.30
2008,06,28,12,22,27.20
2008,06,28,12,23,27.20
2008,06,28,12,24,27.20
2008,06,28,12,25,27.20
2008,06,28,12,26,27.20
2008,06,28,12,27,27.20
2008,06,28,12,28,27.20
2008,06,28,12,29,27.20
2008,06,28,12,30,27.30
2008,06,28,12,31,27.40
2008,06,28,12,32,27.50
2008,06,28,12,33,27.60
2008,06,28,12,34,27.60
2008,06,28,12,35,27.60
2008,06,28,12,36,27.70
2008,06,28,12,37,27.80
2008,06,28,12,38,27.80
2008,06,28,12,39,27.80
2008,06,28,12,40,27.80
2008,06,28,12,41,27.80
2008,06,28,12,42,27.80
2008,06,28,12,43,27.80
2008,06,28,12,44,27.80
2008,06,28,12,45,27.80
2008,06,28,12,46,27.80
2008,06,28,12,47,27.90
2008,06,28,12,48,27.90
2008,06,28,12,49,27.80
2008,06,28,12,50,27.80
2008,06,28,12,51,27.70
2008,06,28,12,52,27.70
2008,06,28,12,53,27.70
2008,06,28,12,54,27.70
2008,06,28,12,55,27.80
2008,06,28,12,56,27.90
2008,06,28,12,57,27.90
2008,06,28,12,58,28.00
2008,06,28,12,59,28.10
2008,06,28,13,00,28.10
2008,06,28,13,01,28.10
2008,06,28,13,02,28.10
2008,06,28,13,03,28.00
2008,06,28,13,04,28.00
2008,06,28,13,05,28.00
2008,06,28,13,06,28.10
2008,06,28,13,07,28.20
2008,06,28,13,08,28.30
2008,06,28,13,09,28.40
2008,06,28,13,10,28.50
2008,06,28,13,11,28.60
2008,06,28,13,12,28.60
2008,06,28,13,13,28.70
2008,06,28,13,14,28.60
2008,06,28,13,15,28.60
2008,06,28,13,16,28.50
2008,06,28,13,17,28.40
2008,06,28,13,18,28.30
2008,06,28,13,19,28.30
2008,06,28,13,20,28.20
2008,06,28,13,21,28.30
2008,06,28,13,22,28.30
2008,06,28,13,23,28.30
2008,06,28,13,24,28.40
2008,06,28,13,25,28.40
2008,06,28,13,26,28.50
2008,06,28,13,27,28.50
2008,06,28,13,28,28.60
2008,06,28,13,29,28.60
2008,06,28,13,30,28.60
2008,06,28,13,31,28.60
2008,06,28,13,32,28.60
2008,06,28,13,33,28.60
2008,06,28,13,34,28.60
2008,06,28,13,35,28.60
2008,06,28,13,36,28.60
2008,06,28,13,37,28.50
2008,06,28,13,38,28.50
2008,06,28,13,39,28.60
2008,06,28,13,40,28.60
2008,06,28,13,41,28.50
2008,06,28,13,42,28.40
2008,06,28,13,43,28.30
2008,06,28,13,44,28.30
2008,06,28,13,45,28.30
2008,06,28,13,46,28.40
2008,06,28,13,47,28.40
2008,06,28,13,48,28.40
2008,06,28,13,49,28.40
2008,06,28,13,50,28.40
2008,06,28,13,51,28.50
2008,06,28,13,52,28.50
2008,06,28,13,53,28.60
2008,06,28,13,54,28.60
2008,06,28,13,55,28.60
2008,06,28,13,56,28.70
2008,06,28,13,57,28.70
2008,06,28,13,58,28.70
2008,06,28,13,59,28.70
2008,06,28,14,00,28.80
2008,06,28,14,01,28.80
2008,06,28,14,02,28.80
2008,06,28,14,03,28.80
2008,06,28,14,04,28.90
2008,06,28,14,05,28.80
2008,06,28,14,06,28.80
2008,06,28,14,07,28.80
2008,06,28,14,08,28.80
2008,06,28,14,09,28.70
2008,06,28,14,10,28.70
2008,06,28,14,11,28.80
2008,06,28,14,12,28.90
2008,06,28,14,13,29.00
2008,06,28,14,14,29.00
2008,06,28,14,15,29.00
2008,06,28,14,16,29.10
2008,06,28,14,17,29.00
2008,06,28,14,18,28.90
2008,06,28,14,19,28.90
2008,06,28,14,20,28.80
2008,06,28,14,21,28.80
2008,06,28,14,22,28.70
2008,06,28,14,23,28.80
2008,06,28,14,24,28.80
2008,06,28,14,25,28.80
2008,06,28,14,26,28.90
2008,06,28,14,27,28.90
2008,06,28,14,28,28.90
2008,06,28,14,29,28.80
2008,06,28,14,30,28.80
2008,06,28,14,31,28.90
2008,06,28,14,32,29.00
2008,06,28,14,33,29.10
2008,06,28,14,34,29.20
2008,06,28,14,35,29.20
2008,06,28,14,36,29.30
2008,06,28,14,37,29.30
2008,06,28,14,38,29.30
2008,06,28,14,39,29.30
2008,06,28,14,40,29.30
2008,06,28,14,41,29.20
2008,06,28,14,42,29.10
2008,06,28,14,43,29.10
2008,06,28,14,44,29.10
2008,06,28,14,45,29.10
2008,06,28,14,46,29.10
2008,06,28,14,47,29.10
2008,06,28,14,48,29.00
2008,06,28,14,49,29.00
2008,06,28,14,50,29.10
2008,06,28,14,51,29.10
2008,06,28,14,52,29.20
2008,06,28,14,53,29.20
2008,06,28,14,54,29.10
2008,06,28,14,55,29.10
2008,06,28,14,56,29.20
2008,06,28,14,57,29.20
2008,06,28,14,58,29.30
2008,06,28,14,59,29.30
2008,06,28,15,00,29.40
2008,06,28,15,01,29.40
2008,06,28,15,02,29.30
2008,06,28,15,03,29.20
2008,06,28,15,04,29.20
2008,06,28,15,05,29.10
2008,06,28,15,06,29.20
2008,06,28,15,07,29.20
2008,06,28,15,08,29.30
2008,06,28,15,09,29.40
2008,06,28,15,10,29.40
2008,06,28,15,11,29.50
2008,06,28,15,12,29.70
2008,06,28,15,13,29.70
2008,06,28,15,14,29.80
2008,06,28,15,15,29.80
2008,06,28,15,16,29.80
2008,06,28,15,17,29.80
2008,06,28,15,18,29.70
2008,06,28,15,19,29.80
2008,06,28,15,20,29.80
2008,06,28,15,21,29.80
2008,06,28,15,22,29.80
2008,06,28,15,23,29.80
2008,06,28,15,24,29.80
2008,06,28,15,25,29.80
2008,06,28,15,26,29.90
2008,06,28,15,27,29.90
2008,06,28,15,28,29.90
2008,06,28,15,29,29.90
2008,06,28,15,30,29.90
2008,06,28,15,31,29.90
2008,06,28,15,32,29.90
2008,06,28,15,33,29.80
2008,06,28,15,34,29.80
2008,06,28,15,35,29.70
2008,06,28,15,36,29.80
2008,06,28,15,37,29.70
2008,06,28,15,38,29.70
2008,06,28,15,39,29.80
2008,06,28,15,40,29.80
2008,06,28,15,41,29.90
2008,06,28,15,42,29.90
2008,06,28,15,43,29.90
2008,06,28,15,44,29.90
2008,06,28,15,45,29.90
2008,06,28,15,46,29.80
2008,06,28,15,47,29.70
2008,06,28,15,48,29.80
2008,06,28,15,49,29.80
2008,06,28,15,50,29.90
2008,06,28,15,51,30.10
2008,06,28,15,52,30.20
2008,06,28,15,53,30.40
2008,06,28,15,54,30.50
2008,06,28,15,55,30.50
2008,06,28,15,56,30.60
2008,06,28,15,57,30.60
2008,06,28,15,58,30.60
2008,06,28,15,59,30.60
2008,06,28,16,00,30.50
2008,06,28,16,01,30.50
2008,06,28,16,02,30.40
2008,06,28,16,03,30.40
2008,06,28,16,04,30.40
2008,06,28,16,05,30.40
2008,06,28,16,06,30.40
2008,06,28,16,07,30.40
2008,06,28,16,08,30.40
2008,06,28,16,09,30.40
2008,06,28,16,10,30.40
2008,06,28,16,11,30.40
2008,06,28,16,12,30.30
2008,06,28,16,13,30.30
2008,06,28,16,14,30.30
2008,06,28,16,15,30.30
2008,06,28,16,16,30.30
2008,06,28,16,17,30.30
2008,06,28,16,18,30.30
2008,06,28,16,19,30.30
2008,06,28,16,20,30.40
2008,06,28,16,21,30.40
2008,06,28,16,22,30.30
2008,06,28,16,23,30.30
2008,06,28,16,24,30.30
2008,06,28,16,25,30.20
2008,06,28,16,26,30.20
2008,06,28,16,27,30.20
2008,06,28,16,28,30.10
2008,06,28,16,29,30.00
2008,06,28,16,30,30.00
2008,06,28,16,31,29.90
2008,06,28,16,32,29.80
2008,06,28,16,33,29.80
2008,06,28,16,34,29.70
2008,06,28,16,35,29.60
2008,06,28,16,36,29.50
2008,06,28,16,37,29.50
2008,06,28,16,38,29.40
2008,06,28,16,39,29.40
2008,06,28,16,40,29.40
2008,06,28,16,41,29.40
2008,06,28,16,42,29.30
2008,06,28,16,43,29.30
2008,06,28,16,44,29.20
2008,06,28,16,45,29.20
2008,06,28,16,46,29.10
2008,06,28,16,47,29.10
2008,06,28,16,48,29.10
2008,06,28,16,49,29.10
2008,06,28,16,50,29.10
2008,06,28,16,51,29.10
2008,06,28,16,52,29.10
2008,06,28,16,53,29.10
2008,06,28,16,54,29.10
2008,06,28,16,55,29.10
2008,06,28,16,56,29.10
2008,06,28,16,57,29.10
2008,06,28,16,58,29.00
2008,06,28,16,59,28.90
2008,06,28,17,00,28.90
2008,06,28,17,01,28.90
2008,06,28,17,02,28.90
2008,06,28,17,03,28.90
2008,06,28,17,04,28.90
2008,06,28,17,05,28.90
2008,06,28,17,06,28.80
2008,06,28,17,07,28.80
2008,06,28,17,08,28.80
2008,06,28,17,09,28.80
2008,06,28,17,10,28.80
2008,06,28,17,11,28.80
2008,06,28,17,12,28.80
2008,06,28,17,13,28.70
2008,06,28,17,14,28.70
2008,06,28,17,15,28.70
2008,06,28,17,16,28.70
2008,06,28,17,17,28.70
2008,06,28,17,18,28.70
2008,06,28,17,19,28.70